Weather in Hongseong

South Korea     36°35′24″N   126°40′14″E
temp.,
°C
wind,
m/s
gust,
m/s
humid.,
%
clouds,
%
prec.,
mm/h
press.,
hPa
HPBL,
m
14 may, fri
fri1400:00+16sse1163100 0.0 101211
03:00+15sse1173100 0.0 101211
06:00+15e1179100 0.0 101311
09:00+22se1257100 0.0 1013404
12:00+27ese1248100 0.0 1012988
15:00+28ssw2344100 0.0 10101644
18:00+23nw2265100 0.0 1009121
21:00+18wnw1168100 0.0 101112
15 may, sat
sat1500:00+18ese1171100 0.0 101111
03:00+18ne2277100 0.1 100936
06:00+18ene2794100 1.3 1008304
09:00+18e2692100 2.3 1008315
12:00+18e1293100 0.3 1007166
15:00+24se1273100 0.3 1005574
18:00+21w1189100 0.0 100539
21:00+19wsw1196100 0.0 100664
16 may, sun
sun1600:00+19ssw1297100 0.1 100672
03:00+19se0098100 0.4 100524
06:00+19ese01100100 5.3 100446
09:00+19sw1199100 12.1 1004136
12:00+18nw1299100 5.2 1003143
15:00+18ssw1398100 7.5 1002227
18:00+17sse1298100 1.1 1003133
21:00+17se1199100 1.6 100371
17 may, mon
mon1700:00+17ese1199100 8.1 100264
03:00+17ene11100100 15.3 100068
06:00+16ese2597100 7.9 1000268
09:00+16ene2498100 14.3 1001333
12:00+15e2596100 1.8 1002344
15:00+16ese1294100 1.9 1003356
18:00+14nw2298100 0.7 1005245
21:00+12wnw1297100 0.8 1007256
18 may, tue
tue1800:00+12w2497100 0.1 1009319
03:00+11w249791 0.1 1010308
06:00+11w119767 0.0 101294
09:00+16wnw12750 0.0 1013507
12:00+21wnw33530 0.0 1013942
15:00+21w34495 0.0 1012631
18:00+19w235995 0.0 1013237
21:00+13ssw117830 0.0 101511